Location: Niedergestelen
(46.3129°N, 7.7822°E)
Time: 15:23:50
(UTC+00:00)

Meteor 2-6 Rocket - Pass Details

Date: 01 December 2020
Orbit: 806 x 914 km, 81.3° (Epoch: 27 January)

Event Time Altitude Azimuth Distance (km) Brightness Sun altitude
Rises 17:25:17 0° 175° (S) 3,410 7.5 -16.9°
Reaches altitude 10° 17:27:46 10° 171° (S) 2,462 6.7 -17.3°
Maximum altitude 17:33:10 55° 95° (E) 995 4.2 -18.2°
Enters shadow 17:37:44 14° 21° (NNE) 2,143 6.0 -19.0°
